Terug naar catalogus

CZ-6A DEB

ActiefPO
NORAD 61124·DEBRIS·🇨🇳 China

Gelanceerd Aug 6, 2024 vanaf Taiyuan Satellite Launch Center

Loading…

Volgende Passages (komende 24 uur)

TLE

VersSource: Space-Track

Epoch: Sep 14, 2026, 07:00 UTC

1 61124U 24140PS  26257.29181476  .00001311  00000-0  15108-3 0  9999
2 61124  88.9941 256.5739 0169920 232.2014 126.3720 14.75144844110895

Volg CZ-6A DEB in realtime met AllMySat

Download on the App Store